Location: Prague
(50.0830°N, 14.4670°E)
Time: 00:10:23
(UTC+01:00)

ITUPSAT 1 - Pass Details

Date: 30 November 2021
Orbit: 700 x 713 km, 98.6° (Epoch: 24 January)

Event Time Altitude Azimuth Distance (km) Brightness Sun altitude
Rises 05:24:16 0° 123° (ESE) 3,093 ? -20.6°
Reaches altitude 10° 05:26:56 10° 108° (ESE) 2,181 ? -20.2°
Maximum altitude 05:30:32 22° 59° (ENE) 1,544 ? -19.6°
Drops below altitude 10° 05:34:09 10° 10° (N) 2,198 ? -19.1°
Sets 05:36:51 0° 355° (N) 3,124 ? -18.6°
